Weather in Sovetskoye

Russia / Chuvash Republic     55°51′30″N   46°32′45″E
temp.,
°C
wind,
m/s
gust,
m/s
humid.,
%
clouds,
%
prec.,
mm/h
press.,
hPa
HPBL,
m
13 april, tue
tue1300:00+3ese4998100 0.0 1036128
03:00+4se38100100 0.0 1035141
06:00+3se34100100 0.0 103465
09:00+6se35100100 0.0 103474
12:00+12sse369399 0.0 1033342
15:00+15s366889 0.0 1031184
18:00+11sse337131 0.0 103018
21:00+8sse33755 0.0 103134
14 april, wed
wed1400:00+6s337463 0.0 103030
03:00+6s337278 0.0 103020
06:00+5sse337149 0.0 102922
09:00+12sse36595 0.0 1028252
12:00+17sse46445 0.0 1026845
15:00+18sse56390 0.0 10251144
18:00+15se34670 0.0 102358
21:00+11sse37875 0.0 1024114
15 april, thu
thu1500:00+10sse33880 0.0 102345
03:00+9sse22890 0.0 102218
06:00+9sse22910 0.0 102127
09:00+14s33706 0.0 1020390
12:00+17ssw335643 0.0 10191203
15:00+18sw224933 0.0 10181562
18:00+15wsw225859 0.0 101815
21:00
16 april, fri
fri1600:00+10nne11755 0.0 101810
03:00+8nne35915 0.0 101876
06:00+8nne489890 0.0 1019264
09:00+9ne6885100 0.0 1020447
12:00+10ne6879100 0.0 1021669
15:00+11ne687292 0.0 1021896
18:00+9ne6869100 0.0 1022790
21:00+8ne587033 0.0 1023807
17 april, sat
sat1700:00+4ne389175 0.0 1024168
03:00+2ne498058 0.0 1025164
06:00+2ne497452 0.0 1025212
09:00+7ne57515 0.0 1026729
12:00+10ne56405 0.0 10261574
15:00+11nne674026 0.0 10251856
18:00+8nne585152 0.0 1026382
21:00+4ne511585 0.0 1028335